This is the latest recevied weather packets stored in our database for station/object DB0FN-10. If no packets are shown the sender has not sent any weather packets the latest 10 day(s).
| Time | Temp. | Humidity | Pressure | Rain* | Wind** | Luminosity | Snow |
|---|---|---|---|---|---|---|---|
| 1787616115 | 20.56° C | 45% | 1014.7 hPa | - | - | - | - |
| 1787615215 | 20.56° C | 44% | 1014.7 hPa | - | - | - | - |
| 1787614315 | 21.11° C | 45% | 1015 hPa | - | - | - | - |
| 1787613415 | 21.11° C | 44% | 1015.2 hPa | - | - | - | - |
| 1787612515 | 20.56° C | 45% | 1015 hPa | - | - | - | - |
| 1787611615 | 21.11° C | 44% | 1015.8 hPa | - | - | - | - |
| 1787610715 | 20.56° C | 45% | 1015.8 hPa | - | - | - | - |
| 1787609815 | 21.11° C | 45% | 1015.9 hPa | - | - | - | - |
| 1787608915 | 21.11° C | 45% | 1016.1 hPa | - | - | - | - |
| 1787608014 | 21.11° C | 45% | 1016.2 hPa | - | - | - | - |
| 1787607114 | 21.67° C | 45% | 1016.2 hPa | - | - | - | - |
| 1787606214 | 21.11° C | 46% | 1016.3 hPa | - | - | - | - |
| 1787605314 | 21.67° C | 46% | 1016.3 hPa | - | - | - | - |
| 1787604414 | 21.11° C | 47% | 1016.4 hPa | - | - | - | - |
| 1787603514 | 21.67° C | 46% | 1016.3 hPa | - | - | - | - |
| 1787602614 | 21.67° C | 46% | 1016.6 hPa | - | - | - | - |
| 1787601714 | 21.67° C | 46% | 1016.8 hPa | - | - | - | - |
| 1787600814 | 22.22° C | 45% | 1017 hPa | - | - | - | - |
| 1787599914 | 22.22° C | 45% | 1017.3 hPa | - | - | - | - |
| 1787599014 | 22.78° C | 45% | 1017.4 hPa | - | - | - | - |
| 1787598114 | 22.78° C | 45% | 1017.9 hPa | - | - | - | - |
| 1787597214 | 22.78° C | 45% | 1017.7 hPa | - | - | - | - |
| 1787596314 | 22.78° C | 44% | 1017.7 hPa | - | - | - | - |
| 1787595413 | 23.33° C | 44% | 1017.8 hPa | - | - | - | - |
| 1787594513 | 23.33° C | 44% | 1017.7 hPa | - | - | - | - |
* Rain since midnight (hover to see other rain measurements)
** Current wind speed in m/s (hover to see current wind gust speed)